TimeCST,TemperatureF,Dew PointF,Humidity,Sea Level PressureIn,VisibilityMPH,Wind Direction,Wind SpeedMPH,Gust SpeedMPH,PrecipitationIn,Events,Conditions,WindDirDegrees,DateUTC
12:56 AM,36.0,30.0,79,29.96,10.0,NW,8.1,-,N/A,,Clear,310,2013-02-07 06:56:00
1:56 AM,35.1,28.9,78,29.97,10.0,NNW,10.4,-,N/A,,Clear,330,2013-02-07 07:56:00
2:56 AM,36.0,28.0,73,29.98,10.0,NNW,13.8,-,N/A,,Clear,330,2013-02-07 08:56:00
3:56 AM,35.1,28.0,76,29.98,10.0,NNW,12.7,-,N/A,,Clear,330,2013-02-07 09:56:00
4:56 AM,34.0,28.0,79,29.99,10.0,NNW,18.4,-,N/A,,Mostly Cloudy,330,2013-02-07 10:56:00
5:56 AM,33.1,28.0,82,30.01,10.0,NNW,16.1,-,N/A,,Clear,340,2013-02-07 11:56:00
6:56 AM,33.1,27.0,78,30.04,10.0,NNW,18.4,-,N/A,,Overcast,340,2013-02-07 12:56:00
7:56 AM,30.0,25.0,82,30.08,7.0,NNW,17.3,-,N/A,,Scattered Clouds,330,2013-02-07 13:56:00
8:03 AM,28.4,24.8,86,30.04,6.0,NNW,24.2,-,N/A,,Mostly Cloudy,340,2013-02-07 14:03:00
8:56 AM,28.9,26.1,89,30.13,4.0,NNW,13.8,-,N/A,,Overcast,340,2013-02-07 14:56:00
10:16 AM,26.6,24.8,93,30.11,4.0,NNW,21.9,-,N/A,,Overcast,330,2013-02-07 16:16:00
10:56 AM,27.0,24.1,89,30.17,6.0,NNW,13.8,23.0,N/A,,Overcast,340,2013-02-07 16:56:00
11:56 AM,28.0,24.1,85,30.17,7.0,NNW,16.1,-,N/A,,Overcast,330,2013-02-07 17:56:00
12:56 PM,30.0,24.1,79,30.17,9.0,NNW,18.4,-,N/A,,Overcast,330,2013-02-07 18:56:00
1:56 PM,30.0,24.1,79,30.16,8.0,NNW,16.1,-,N/A,,Overcast,330,2013-02-07 19:56:00
2:30 PM,30.2,24.8,80,30.11,10.0,NNW,16.1,-,N/A,,Overcast,330,2013-02-07 20:30:00
2:56 PM,30.9,24.1,76,30.16,10.0,NNW,17.3,-,N/A,,Overcast,340,2013-02-07 20:56:00
3:56 PM,30.0,24.1,79,30.17,10.0,NNW,13.8,-,N/A,,Overcast,330,2013-02-07 21:56:00
4:56 PM,28.9,23.0,78,30.19,10.0,NNW,15.0,-,N/A,,Overcast,340,2013-02-07 22:56:00
5:56 PM,28.9,23.0,78,30.21,10.0,NNW,11.5,-,N/A,,Overcast,340,2013-02-07 23:56:00
6:56 PM,28.9,21.9,75,30.23,10.0,NNW,11.5,-,N/A,,Overcast,340,2013-02-08 00:56:00
7:56 PM,28.0,21.9,78,30.25,10.0,North,12.7,-,N/A,,Overcast,360,2013-02-08 01:56:00
8:56 PM,28.0,21.9,78,30.27,10.0,North,8.1,-,N/A,,Overcast,10,2013-02-08 02:56:00
9:56 PM,27.0,23.0,85,30.28,10.0,North,6.9,-,N/A,,Overcast,10,2013-02-08 03:56:00
10:33 PM,26.6,21.2,80,30.22,9.0,North,5.8,-,N/A,,Overcast,360,2013-02-08 04:33:00
10:56 PM,27.0,23.0,85,30.28,9.0,NNE,5.8,-,N/A,,Overcast,20,2013-02-08 04:56:00
11:56 PM,27.0,23.0,85,30.29,9.0,Calm,Calm,-,N/A,,Overcast,0,2013-02-08 05:56:00